Temp
-16 -16 -16 -15 -15 -14 -14 -14 -14 -13 -13 -13 -13 -13 -13 -12 -12 -12 -12 -12 -12 -11 -11 -11 -11 -11 -11 -10 -10 -10 -10 -10 -10 -10 -10 -9 -9 -9 -9 -9 -9 -9 -8 -8 -8
-16 -16 -17 -16 -16 -15 -14 -14 -14 -14 -14 -13 -13 -13 -13 -13 -12 -12 -12 -12 -12 -11 -11 -11 -12 -11 -11 -10 -10 -10 -10 -9 -9 -10 -9 -9 -9 -9 -9 -9 -9 -9 -8 -8 -8
-17 -16 -16 -16 -17 -16 -16 -15 -15 -14 -14 -14 -14 -13 -13 -13 -12 -12 -12 -12 -11 -12 -12 -11 -11 -11 -10 -10 -10 -10 -10 -9 -9 -9 -9 -9 -9 -10 -9 -9 -9 -9 -9 -9 -8
-18 -17 -17 -17 -16 -17 -16 -16 -15 -15 -15 -14 -14 -14 -13 -13 -12 -12 -12 -12 -12 -12 -12 -12 -11 -11 -10 -10 -10 -10 -10 -10 -10 -9 -10 -10 -10 -10 -10 -9 -9 -9 -9 -9 -9
-18 -18 -18 -17 -16 -16 -17 -16 -16 -16 -15 -15 -14 -14 -13 -13 -13 -12 -12 -12 -12 -12 -12 -12 -11 -11 -10 -10 -10 -10 -10 -10 -10 -10 -10 -10 -10 -10 -10 -10 -10 -9 -9 -9 -9
-18 -18 -18 -18 -17 -17 -17 -17 -17 -16 -16 -15 -15 -14 -14 -13 -14 -13 -12 -12 -12 -12 -12 -11 -11 -11 -10 -10 -10 -10 -10 -10 -10 -10 -10 -10 -10 -10 -10 -10 -10 -9 -9 -9 -9
-20 -19 -18 -18 -18 -18 -18 -17 -17 -17 -16 -15 -15 -15 -14 -14 -14 -13 -13 -13 -12 -12 -11 -11 -11 -11 -11 -10 -10 -10 -10 -10 -10 -10 -10 -10 -10 -10 -10 -10 -10 -10 -10 -9 -9
-20 -20 -19 -18 -18 -18 -18 -18 -17 -17 -17 -16 -15 -15 -14 -15 -13 -14 -13 -13 -13 -13 -12 -11 -11 -11 -11 -10 -10 -10 -10 -10 -11 -11 -11 -11 -10 -10 -10 -10 -10 -10 -9 -9 -10
-20 -20 -21 -20 -18 -19 -19 -19 -18 -17 -17 -17 -16 -15 -14 -15 -14 -14 -14 -13 -13 -13 -12 -12 -12 -11 -11 -10 -11 -10 -10 -11 -11 -11 -11 -11 -11 -11 -11 -10 -10 -10 -10 -10 -10
-20 -20 -21 -21 -20 -19 -20 -20 -19 -18 -17 -16 -16 -16 -14 -15 -15 -14 -14 -13 -13 -14 -13 -12 -12 -11 -11 -11 -10 -11 -11 -11 -11 -11 -11 -11 -11 -11 -11 -10 -10 -10 -11 -11 -10
-21 -20 -20 -21 -21 -22 -20 -20 -18 -19 -18 -16 -15 -15 -15 -15 -15 -15 -15 -14 -14 -14 -13 -13 -12 -11 -12 -12 -12 -11 -11 -11 -11 -11 -11 -11 -11 -11 -10 -10 -11 -11 -11 -11 -10
-21 -21 -21 -21 -21 -21 -22 -20 -20 -19 -20 -19 -18 -18 -16 -16 -16 -15 -15 -14 -14 -13 -14 -13 -12 -12 -13 -12 -12 -12 -12 -12 -12 -12 -11 -11 -11 -11 -11 -11 -11 -11 -11 -11 -10
-21 -22 -22 -21 -22 -22 -22 -22 -22 -20 -20 -20 -20 -19 -17 -17 -17 -16 -16 -15 -15 -14 -14 -14 -13 -13 -13 -13 -13 -12 -12 -12 -12 -12 -12 -12 -11 -11 -11 -11 -11 -11 -11 -11 -11
-22 -22 -22 -22 -22 -22 -22 -22 -22 -22 -22 -20 -20 -20 -19 -18 -17 -16 -16 -16 -16 -14 -15 -14 -13 -14 -13 -13 -13 -13 -13 -13 -13 -13 -13 -12 -11 -11 -11 -12 -11 -12 -11 -11 -11
-22 -22 -22 -22 -22 -22 -22 -22 -22 -22 -23 -21 -20 -20 -20 -18 -18 -18 -17 -16 -16 -16 -15 -14 -14 -14 -14 -14 -14 -14 -14 -14 -14 -14 -13 -12 -12 -10 -11 -12 -13 -13 -12 -12 -12
-25 -23 -22 -22 -22 -22 -22 -22 -22 -23 -24 -22 -20 -19 -19 -19 -18 -19 -18 -18 -17 -17 -16 -15 -15 -14 -14 -14 -15 -14 -14 -15 -14 -14 -13 -13 -13 -11 -11 -12 -13 -13 -13 -13 -12
-27 -25 -23 -22 -22 -22 -23 -23 -24 -24 -23 -22 -20 -19 -18 -18 -19 -19 -18 -18 -17 -17 -16 -16 -15 -15 -15 -15 -15 -15 -15 -15 -15 -15 -13 -13 -14 -12 -12 -13 -13 -13 -13 -13 -13
-28 -28 -26 -23 -22 -23 -24 -23 -23 -22 -22 -22 -20 -20 -20 -20 -19 -20 -20 -19 -18 -18 -18 -17 -17 -16 -15 -15 -16 -17 -17 -16 -17 -16 -16 -16 -14 -12 -13 -13 -14 -14 -14 -14 -13
-28 -28 -28 -24 -23 -24 -23 -23 -22 -22 -22 -21 -21 -21 -21 -20 -20 -20 -19 -19 -19 -18 -18 -18 -18 -18 -17 -18 -18 -17 -17 -18 -18 -18 -17 -16 -13 -13 -13 -14 -15 -15 -15 -14 -14
-28 -28 -28 -27 -25 -24 -23 -24 -24 -22 -23 -22 -22 -22 -21 -20 -20 -20 -20 -18 -19 -19 -19 -19 -19 -19 -19 -19 -18 -18 -18 -19 -19 -19 -18 -15 -15 -14 -13 -15 -15 -15 -15 -15 -15
-28 -28 -28 -27 -26 -25 -24 -24 -23 -23 -23 -22 -22 -23 -22 -21 -21 -21 -20 -19 -19 -19 -20 -20 -20 -19 -20 -18 -19 -19 -19 -19 -20 -19 -19 -17 -15 -14 -14 -15 -16 -16 -16 -16 -16
-28 -27 -28 -28 -27 -26 -25 -24 -25 -23 -24 -24 -23 -23 -23 -23 -22 -22 -21 -21 -21 -21 -20 -21 -21 -20 -20 -19 -20 -21 -21 -21 -21 -20 -20 -21 -15 -14 -15 -16 -16 -17 -17 -17 -17
-27 -27 -28 -28 -27 -26 -25 -26 -24 -24 -24 -24 -24 -23 -23 -23 -23 -22 -22 -22 -22 -22 -21 -21 -21 -21 -21 -20 -19 -20 -20 -20 -21 -21 -21 -20 -15 -16 -17 -17 -18 -18 -18 -18 -18
-27 -28 -28 -28 -27 -26 -26 -25 -25 -24 -24 -24 -24 -24 -24 -23 -24 -24 -23 -22 -23 -22 -23 -23 -23 -22 -21 -20 -21 -21 -21 -21 -22 -22 -19 -20 -17 -17 -17 -17 -18 -19 -19 -19 -19
-27 -27 -28 -27 -27 -27 -27 -26 -25 -25 -25 -25 -24 -24 -24 -24 -24 -24 -24 -24 -24 -23 -23 -24 -23 -23 -22 -22 -23 -21 -21 -22 -23 -20 -21 -18 -19 -17 -18 -18 -19 -20 -19 -19 -20
-28 -27 -28 -28 -28 -26 -27 -26 -25 -25 -25 -25 -24 -24 -25 -25 -25 -24 -24 -24 -24 -24 -24 -24 -23 -24 -23 -22 -23 -23 -22 -21 -20 -20 -22 -20 -19 -18 -18 -20 -20 -20 -21 -21 -21
-27 -28 -28 -28 -28 -28 -27 -25 -26 -25 -25 -25 -24 -25 -25 -24 -24 -25 -24 -24 -25 -25 -25 -25 -24 -24 -23 -23 -23 -24 -22 -21 -21 -22 -21 -22 -20 -21 -20 -20 -20 -21 -22 -22 -22
Height
5708 5715 5722 5730 5736 5743 5749 5755 5761 5767 5774 5782 5789 5795 5801 5806 5812 5818 5823 5828 5831 5835 5840 5844 5847 5850 5853 5857 5860 5863 5866 5868 5870 5872 5875 5876 5877 5878 5879 5879 5880 5880 5881 5882 5882
5697 5704 5711 5718 5725 5733 5740 5745 5752 5758 5765 5772 5779 5785 5792 5797 5804 5810 5815 5818 5823 5828 5833 5837 5841 5844 5848 5851 5855 5857 5860 5863 5866 5868 5871 5873 5875 5876 5876 5877 5879 5879 5879 5880 5881
5684 5692 5700 5708 5715 5722 5730 5736 5743 5749 5756 5762 5768 5775 5781 5788 5795 5802 5806 5810 5815 5821 5826 5831 5834 5838 5841 5845 5850 5853 5855 5858 5862 5864 5867 5869 5871 5872 5873 5876 5876 5877 5877 5878 5879
5670 5679 5688 5696 5704 5713 5721 5728 5734 5740 5746 5752 5759 5765 5771 5779 5785 5793 5798 5802 5808 5813 5819 5823 5828 5831 5835 5839 5843 5848 5850 5853 5856 5859 5862 5865 5867 5869 5870 5872 5873 5874 5875 5876 5876
5656 5665 5675 5684 5692 5700 5709 5716 5723 5730 5737 5743 5748 5755 5762 5771 5777 5784 5790 5795 5801 5807 5812 5817 5821 5824 5827 5832 5837 5840 5844 5847 5850 5853 5857 5860 5862 5864 5865 5868 5869 5870 5872 5872 5873
5642 5652 5661 5671 5681 5689 5696 5706 5713 5720 5726 5733 5738 5745 5753 5762 5769 5773 5780 5785 5791 5798 5803 5808 5812 5816 5820 5824 5829 5834 5838 5841 5844 5848 5852 5855 5856 5859 5861 5861 5864 5865 5866 5868 5869
5628 5638 5649 5659 5668 5677 5682 5692 5701 5708 5714 5721 5728 5734 5742 5752 5759 5764 5771 5778 5783 5789 5794 5799 5804 5808 5814 5817 5822 5827 5831 5834 5838 5842 5845 5849 5850 5855 5854 5856 5858 5859 5862 5863 5864
5616 5625 5634 5644 5654 5663 5670 5678 5685 5693 5701 5707 5715 5725 5733 5739 5748 5755 5762 5768 5774 5780 5786 5791 5796 5801 5807 5811 5816 5820 5823 5826 5833 5835 5839 5841 5847 5847 5847 5850 5851 5853 5854 5856 5859
5602 5613 5623 5630 5641 5649 5656 5664 5672 5679 5688 5695 5704 5714 5720 5730 5738 5745 5752 5759 5765 5771 5776 5781 5786 5792 5798 5803 5808 5811 5815 5820 5826 5829 5832 5833 5839 5839 5840 5842 5843 5846 5848 5850 5851
5587 5599 5611 5619 5626 5636 5645 5651 5660 5666 5674 5682 5691 5701 5712 5720 5725 5733 5741 5747 5755 5760 5767 5773 5777 5783 5789 5794 5801 5808 5811 5815 5818 5821 5820 5822 5829 5832 5834 5833 5836 5838 5841 5842 5843
5574 5586 5599 5610 5617 5623 5630 5638 5649 5655 5665 5672 5682 5692 5697 5706 5715 5722 5730 5737 5743 5750 5757 5764 5768 5776 5784 5789 5792 5797 5801 5805 5808 5809 5811 5814 5817 5824 5824 5826 5828 5831 5832 5833 5833
5560 5573 5585 5598 5606 5613 5618 5629 5642 5651 5660 5664 5670 5678 5684 5695 5703 5711 5719 5726 5732 5740 5747 5754 5759 5766 5772 5777 5781 5787 5791 5795 5798 5799 5802 5803 5805 5811 5818 5816 5819 5821 5823 5824 5825
5545 5559 5572 5583 5592 5602 5613 5625 5630 5635 5643 5650 5658 5666 5676 5683 5692 5701 5708 5714 5722 5728 5736 5743 5750 5755 5761 5767 5772 5776 5780 5784 5787 5789 5790 5792 5795 5797 5805 5808 5810 5810 5812 5814 5817
5528 5544 5558 5570 5580 5594 5602 5614 5621 5627 5627 5631 5641 5652 5663 5671 5680 5690 5697 5704 5710 5718 5724 5730 5737 5743 5748 5755 5759 5763 5769 5771 5773 5775 5778 5779 5780 5786 5794 5799 5799 5800 5800 5803 5804
5510 5528 5543 5556 5574 5582 5598 5604 5613 5616 5608 5617 5627 5639 5653 5663 5674 5681 5685 5691 5700 5707 5713 5721 5727 5734 5740 5746 5748 5753 5756 5757 5760 5762 5764 5767 5767 5777 5783 5786 5789 5790 5789 5791 5791
5493 5509 5526 5541 5558 5576 5588 5598 5600 5599 5591 5601 5613 5627 5642 5654 5660 5667 5672 5680 5688 5693 5701 5708 5716 5720 5729 5731 5735 5740 5743 5744 5746 5746 5747 5756 5761 5768 5770 5775 5774 5777 5780 5781 5779
5481 5492 5510 5527 5551 5565 5576 5584 5583 5576 5586 5590 5605 5620 5635 5642 5646 5655 5662 5670 5677 5683 5692 5697 5704 5710 5716 5719 5722 5726 5728 5731 5730 5731 5737 5742 5747 5761 5754 5758 5759 5763 5765 5766 5766
5473 5483 5495 5515 5537 5552 5564 5568 5562 5568 5576 5586 5601 5611 5617 5628 5633 5645 5651 5658 5666 5674 5681 5686 5692 5700 5707 5710 5715 5716 5717 5720 5717 5718 5724 5727 5729 5739 5745 5741 5743 5746 5750 5750 5749
5468 5476 5486 5500 5522 5540 5549 5544 5549 5559 5571 5583 5590 5595 5602 5612 5624 5633 5641 5652 5660 5669 5675 5678 5680 5687 5692 5695 5700 5702 5700 5708 5705 5704 5703 5708 5719 5723 5730 5732 5731 5731 5732 5730 5731
5466 5472 5481 5492 5508 5522 5525 5532 5545 5556 5563 5570 5577 5586 5593 5603 5611 5619 5628 5644 5650 5657 5661 5663 5668 5673 5679 5680 5683 5686 5691 5688 5687 5689 5689 5697 5703 5716 5718 5717 5716 5716 5716 5716 5715
5462 5469 5476 5484 5492 5499 5507 5516 5534 5544 5552 5561 5570 5574 5585 5592 5602 5610 5620 5632 5640 5648 5650 5651 5655 5660 5662 5667 5674 5676 5675 5677 5678 5680 5680 5684 5687 5704 5707 5704 5702 5702 5701 5700 5699
5460 5465 5471 5475 5478 5487 5495 5506 5517 5532 5540 5549 5561 5566 5574 5588 5596 5600 5608 5623 5630 5636 5637 5644 5642 5646 5651 5657 5660 5659 5663 5663 5663 5669 5667 5670 5677 5693 5693 5691 5691 5690 5688 5686 5685
5458 5463 5468 5471 5474 5476 5486 5498 5514 5528 5538 5542 5550 5558 5567 5575 5583 5590 5602 5612 5616 5621 5626 5630 5628 5632 5636 5641 5644 5645 5650 5652 5655 5654 5653 5657 5670 5685 5676 5676 5676 5674 5672 5671 5670
5458 5462 5467 5472 5475 5479 5484 5496 5509 5519 5528 5531 5539 5550 5558 5564 5573 5582 5590 5602 5605 5610 5613 5615 5617 5619 5623 5636 5633 5635 5639 5641 5641 5639 5646 5641 5656 5667 5664 5664 5661 5656 5655 5655 5654
5457 5461 5466 5470 5474 5476 5484 5491 5500 5509 5517 5522 5532 5541 5551 5558 5566 5570 5583 5589 5593 5598 5600 5602 5605 5610 5614 5618 5617 5621 5622 5625 5623 5631 5626 5639 5634 5654 5655 5649 5642 5640 5641 5642 5642
5455 5457 5459 5463 5466 5469 5473 5476 5489 5502 5509 5518 5527 5539 5542 5547 5557 5569 5576 5579 5582 5587 5588 5592 5596 5598 5601 5607 5606 5605 5607 5611 5616 5617 5614 5622 5622 5640 5641 5633 5632 5632 5630 5628 5627
5451 5455 5456 5458 5458 5458 5459 5471 5481 5496 5503 5515 5524 5529 5533 5543 5553 5562 5563 5569 5573 5576 5579 5581 5585 5585 5587 5599 5592 5585 5597 5603 5602 5605 5609 5605 5617 5624 5619 5620 5619 5618 5614 5614 5615
Wind_Speed
60 61 58 54 51 56 55 56 55 56 58 60 60 59 58 56 55 55 54 52 49 48 46 44 42 39 35 34 32 30 27 25 23 21 19 16 14 14 13 12 10 8 7 7 5
63 60 60 55 57 52 55 53 55 55 54 57 60 60 59 58 57 56 56 56 55 52 50 47 45 43 39 37 34 32 30 27 23 20 19 17 16 17 16 14 11 10 9 7 6
66 64 62 66 58 59 53 53 53 54 55 54 55 59 60 59 57 55 57 57 57 55 52 49 46 44 41 37 35 32 32 29 26 25 22 20 19 18 17 16 14 12 10 9 8
67 63 63 62 64 61 55 57 55 53 55 54 54 54 57 59 59 55 57 57 57 56 54 51 47 44 41 39 37 35 32 30 29 28 26 23 22 20 20 18 16 14 12 11 11
78 69 63 63 63 68 66 56 56 57 56 54 53 54 54 55 55 52 53 54 54 54 52 50 49 46 44 42 40 38 36 33 32 30 27 24 23 21 21 19 18 17 16 14 14
71 79 72 68 63 63 68 66 58 60 58 58 54 54 55 54 51 50 51 53 53 51 50 50 49 48 48 46 44 40 38 36 35 32 29 27 26 24 23 24 22 21 20 18 18
69 73 74 72 73 68 66 67 65 62 60 60 59 57 56 53 53 53 50 51 52 51 50 50 49 50 50 49 47 43 42 40 38 35 33 30 29 24 28 26 26 26 24 23 22
71 71 71 70 68 73 73 68 69 69 67 59 63 61 59 57 56 53 53 52 52 51 51 51 50 51 50 50 48 47 45 44 41 39 35 34 30 30 31 31 31 30 30 28 27
72 69 67 69 69 66 68 67 66 70 74 69 63 62 62 60 57 55 54 54 53 53 53 53 53 53 52 51 50 50 49 46 43 40 39 39 35 35 35 35 36 35 34 33 32
72 71 67 65 67 67 66 65 64 65 69 78 71 67 63 63 61 59 58 58 56 56 55 56 56 57 56 55 52 48 47 46 45 44 46 46 41 40 39 40 39 38 37 36 37
69 70 70 65 64 64 67 65 64 63 65 66 72 71 68 64 63 62 60 59 58 57 57 56 57 57 55 53 53 52 50 50 50 50 49 49 47 43 43 43 40 40 41 42 43
72 67 67 67 65 63 62 64 60 59 54 60 64 60 70 65 59 61 61 61 60 59 57 58 59 57 54 55 55 53 53 53 52 52 52 52 52 47 43 46 44 43 43 44 45
78 72 67 65 66 64 62 58 58 61 61 57 60 60 65 63 61 60 60 60 60 61 59 58 57 55 55 55 54 54 54 52 53 53 54 54 53 52 47 46 45 46 45 46 45
83 78 73 68 67 61 62 59 56 55 55 63 63 62 58 64 62 61 59 59 59 59 58 60 59 56 57 58 56 57 54 53 55 54 55 56 57 54 49 45 46 46 48 47 48
86 83 79 76 67 63 59 56 56 51 58 66 64 63 62 59 55 58 58 61 58 58 59 57 56 55 55 53 52 54 51 51 52 54 56 58 61 58 52 50 45 45 49 50 51
48 84 84 80 74 65 58 50 48 56 63 62 66 64 58 61 62 56 59 59 58 58 57 58 56 56 54 51 52 53 53 52 54 58 62 61 60 63 60 56 54 52 49 49 52
32 59 85 83 76 69 66 63 61 64 64 67 70 65 60 58 58 61 59 59 64 60 61 61 61 59 59 58 57 59 57 57 60 60 63 63 62 63 67 61 57 56 52 52 55
31 42 55 82 78 72 55 55 72 70 63 61 61 65 65 59 57 51 56 59 55 53 58 61 64 63 62 62 61 55 57 59 61 66 65 67 71 69 65 64 59 56 52 55 56
35 42 51 67 77 71 71 58 67 68 64 63 61 58 60 63 58 55 58 53 54 55 53 50 52 54 57 57 58 58 63 56 56 61 65 68 69 68 61 56 55 56 55 56 54
35 37 48 65 72 72 74 71 71 72 71 65 63 62 64 61 60 59 57 57 56 52 52 55 57 57 53 51 51 51 52 54 57 60 62 65 63 58 56 52 53 54 54 54 56
32 34 32 67 87 83 79 74 72 65 62 75 69 61 59 60 57 55 56 54 51 49 51 52 53 55 56 59 55 54 55 54 52 54 56 59 62 57 54 53 54 55 56 57 59
27 24 39 50 80 93 83 74 72 76 68 67 67 69 72 68 63 57 55 48 46 44 45 42 48 51 53 51 51 54 53 54 57 58 57 55 62 54 54 55 56 56 57 58 60
28 25 27 39 72 94 85 73 75 70 52 64 80 75 57 61 61 57 52 47 45 44 45 46 51 51 52 56 57 58 58 58 57 56 62 62 61 53 57 57 56 58 59 60 61
27 24 23 22 33 80 80 79 71 64 61 46 51 62 59 56 54 54 51 44 45 44 43 43 47 51 54 49 51 53 53 53 53 56 59 62 61 57 59 57 57 58 56 57 58
20 19 21 21 22 26 76 87 69 58 58 55 57 60 65 60 56 56 50 49 47 48 46 46 48 48 48 47 50 54 55 54 55 56 59 57 59 51 48 53 56 56 57 53 51
13 15 13 11 17 39 49 52 78 57 63 56 61 54 51 55 52 44 45 44 48 47 48 47 49 50 52 49 51 55 57 56 56 58 61 57 57 41 42 50 51 48 47 48 49
14 14 9 10 18 20 30 49 79 71 52 55 50 40 46 53 50 41 33 41 35 36 43 49 49 54 56 50 53 58 57 55 54 51 49 51 45 37 42 45 47 45 48 50 48
Wind_Direction
228 233 226 227 228 229 230 231 232 230 229 228 227 227 228 228 229 230 230 229 227 225 224 225 224 224 222 223 226 228 230 230 226 226 221 210 207 213 217 211 207 199 203 200 199
230 228 227 229 232 227 230 228 231 231 230 229 229 228 228 229 230 231 231 229 229 227 227 226 226 224 223 224 225 224 226 224 217 210 208 209 211 217 218 219 217 216 217 223 229
231 230 229 231 229 226 229 234 230 232 231 230 229 229 228 228 229 230 233 230 228 228 227 226 224 224 221 219 219 214 216 218 216 209 213 218 214 216 218 216 216 218 221 225 240
228 231 230 231 231 229 230 229 232 231 232 229 230 229 228 228 228 228 232 232 230 229 227 225 222 221 219 215 212 213 216 219 221 219 218 218 219 219 221 222 227 230 232 238 244
230 226 229 229 229 228 229 230 233 231 231 230 229 231 229 228 227 225 229 233 233 232 229 227 223 221 218 213 213 216 219 222 225 227 223 220 221 221 228 229 231 237 241 241 243
230 224 224 226 227 228 235 227 229 232 230 231 228 229 230 229 228 224 222 227 229 229 228 226 223 221 215 214 216 219 221 223 225 227 228 227 229 227 230 236 236 240 245 248 251
233 230 228 229 227 227 228 233 227 229 232 229 230 227 228 228 227 228 221 223 225 226 224 224 223 222 216 216 218 219 222 225 227 227 228 231 234 233 237 243 247 245 246 248 254
229 233 233 227 230 228 228 228 228 227 229 229 230 229 228 228 227 228 226 222 224 224 223 222 224 223 222 221 222 224 225 229 227 230 232 236 234 239 242 245 248 252 252 251 253
227 228 230 234 229 234 227 225 228 232 229 234 230 229 228 229 227 227 229 227 225 225 224 221 221 223 223 224 225 226 228 230 231 234 237 241 237 240 244 247 249 251 254 256 256
225 226 226 230 235 230 228 228 233 232 232 231 232 227 229 229 228 227 228 228 227 226 226 226 224 223 224 224 227 230 234 235 237 236 238 240 240 242 247 251 253 256 259 261 262
223 224 224 224 228 234 236 230 231 231 234 237 235 230 229 229 230 229 228 229 230 229 228 227 229 228 230 231 231 231 233 235 237 239 241 244 248 245 249 253 256 259 262 263 264
220 221 221 222 223 226 232 239 238 234 235 238 233 228 228 230 230 230 228 229 230 232 232 230 230 231 232 233 233 234 235 238 240 242 244 248 250 250 250 255 258 260 262 264 267
219 217 219 219 221 222 229 235 237 242 239 233 230 231 230 230 229 229 229 229 230 231 233 234 233 235 236 237 238 238 238 240 243 245 247 248 249 251 250 254 261 264 266 270 272
218 216 216 216 218 219 224 228 230 233 242 238 230 228 232 231 227 227 230 230 230 231 232 233 235 233 236 238 239 241 242 243 244 243 244 248 249 251 253 255 259 266 270 272 272
220 216 216 216 217 219 221 224 227 227 236 238 237 232 228 229 228 229 228 231 230 231 233 236 236 238 238 239 241 244 243 244 246 246 245 246 251 254 255 260 263 265 270 271 271
221 218 215 215 216 216 221 222 226 225 232 237 239 235 233 229 228 226 228 227 229 231 233 233 233 235 236 236 239 241 243 245 247 247 248 252 255 257 261 267 269 268 269 269 269
223 215 216 215 215 214 215 215 220 230 233 236 240 240 239 236 235 232 231 231 232 231 231 231 234 236 236 236 240 244 245 246 247 249 254 256 257 262 265 267 270 271 271 270 269
217 200 207 213 210 211 209 213 218 220 225 238 242 242 241 241 236 232 233 233 232 232 232 236 239 242 246 249 248 249 252 254 257 258 259 258 259 261 263 268 270 273 273 272 273
206 195 192 205 206 196 204 209 208 221 230 229 228 237 236 238 238 237 238 237 237 240 241 243 242 241 243 244 245 247 250 255 256 257 258 259 260 261 263 268 273 275 273 273 274
200 201 199 192 194 191 205 211 212 219 220 220 230 236 239 239 239 239 239 239 241 241 242 244 244 243 244 245 244 246 245 245 249 251 254 260 263 266 267 267 267 269 271 273 275
198 202 203 195 188 191 201 203 211 210 217 226 232 230 231 240 246 247 247 245 242 243 243 244 246 248 246 246 250 251 251 251 255 257 261 262 259 260 264 266 270 274 277 278 279
192 188 202 205 203 193 200 201 208 209 217 228 227 232 239 245 244 243 248 247 244 241 244 250 251 250 252 248 248 248 248 248 249 252 254 260 260 267 268 270 272 273 275 275 274
206 204 205 211 205 202 204 206 210 212 210 226 230 233 229 233 241 242 240 243 241 240 241 243 245 245 245 247 245 247 248 250 251 252 255 259 267 267 269 271 271 271 270 270 272
209 214 222 222 215 208 204 204 204 202 203 208 220 226 232 228 231 239 241 239 241 239 239 238 239 242 247 254 254 250 252 254 255 257 260 261 266 261 267 268 268 268 268 269 269
210 232 229 229 228 213 218 211 207 205 206 211 217 229 233 238 238 236 234 236 235 237 241 240 242 242 243 243 246 248 247 246 249 256 255 265 263 267 268 269 264 264 268 271 272
216 244 225 211 232 232 229 231 215 203 211 216 221 216 228 226 236 248 238 242 249 242 236 239 241 243 243 245 249 251 251 252 256 256 256 263 264 271 266 267 268 270 270 269 268
209 189 212 246 268 261 241 215 217 203 197 205 209 224 227 232 236 231 240 226 236 242 246 246 247 250 249 246 248 246 252 259 259 258 264 265 267 259 258 257 258 259 262 264 265